Location: Béaulencourt
(50.0796°N, 2.8795°E)
Time: 00:11:11
(UTC+00:00)

SJ 16-02 - Pass Details

Date: 20 January 2026
Orbit: 582 x 594 km, 75.0° (Epoch: 17 February)

Event Time Altitude Azimuth Distance (km) Brightness Sun altitude
Rises 06:59:27 0° 225° (SW) 2,796 4.5 -6.2°
Reaches altitude 10° 07:01:48 10° 234° (SW) 1,901 3.6 -5.8°
Maximum altitude 07:05:41 34° 301° (WNW) 967 1.9 -5.3°
Drops below altitude 10° 07:09:36 10° 7° (N) 1,917 3.7 -4.7°
Sets 07:12:00 0° 17° (NNE) 2,824 4.6 -4.4°
